Time,TemperatureF,DewpointF,PressureIn,WindDirection,WindDirectionDegrees,WindSpeedMPH,WindSpeedGustMPH,Humidity,HourlyPrecipIn,Conditions,Clouds,dailyrainin,SoftwareType,DateUTC
2013-07-30 00:01:00,64.7,57.0,29.89,NNW,336,0.0,2.0,76,0.00,,,0.00,Wunderground v.1.15,2013-07-30 04:01:00,
2013-07-30 00:04:00,64.6,56.9,29.89,NNW,336,0.0,2.0,76,0.00,,,0.00,Wunderground v.1.15,2013-07-30 04:04:00,
2013-07-30 00:10:00,64.5,56.4,29.89,NNW,336,0.0,0.0,75,0.00,,,0.00,Wunderground v.1.15,2013-07-30 04:10:00,
2013-07-30 00:15:00,64.5,56.4,29.89,NNW,336,0.0,0.0,75,0.00,,,0.00,Wunderground v.1.15,2013-07-30 04:15:00,
2013-07-30 00:21:00,64.5,56.4,29.90,NNW,333,0.0,0.0,75,0.00,,,0.00,Wunderground v.1.15,2013-07-30 04:21:00,
2013-07-30 00:25:00,64.5,56.4,29.90,NNW,331,0.0,0.0,75,0.00,,,0.00,Wunderground v.1.15,2013-07-30 04:25:00,
2013-07-30 00:31:00,64.5,56.4,29.90,NNW,331,0.0,0.0,75,0.00,,,0.00,Wunderground v.1.15,2013-07-30 04:31:00,
2013-07-30 00:37:00,64.5,56.4,29.90,NNW,330,0.0,0.0,75,0.00,,,0.00,Wunderground v.1.15,2013-07-30 04:37:00,
2013-07-30 00:43:00,64.5,57.1,29.90,NNW,329,0.0,0.0,77,0.00,,,0.00,Wunderground v.1.15,2013-07-30 04:43:00,
2013-07-30 00:48:00,64.5,57.1,29.90,NNW,329,0.0,0.0,77,0.00,,,0.00,Wunderground v.1.15,2013-07-30 04:48:00,
2013-07-30 00:54:00,64.4,57.0,29.90,NNW,329,0.0,0.0,77,0.00,,,0.00,Wunderground v.1.15,2013-07-30 04:54:00,
2013-07-30 01:00:00,64.3,56.9,29.89,NNW,329,0.0,0.0,77,0.00,,,0.00,Wunderground v.1.15,2013-07-30 05:00:00,
2013-07-30 01:06:00,64.2,57.5,29.89,NNW,329,0.0,0.0,79,0.00,,,0.00,Wunderground v.1.15,2013-07-30 05:06:00,
2013-07-30 01:11:00,64.2,57.2,29.89,NNW,329,0.0,0.0,78,0.00,,,0.00,Wunderground v.1.15,2013-07-30 05:11:00,
2013-07-30 01:17:00,64.2,57.5,29.90,NNW,329,0.0,0.0,79,0.00,,,0.00,Wunderground v.1.15,2013-07-30 05:17:00,
2013-07-30 01:22:00,64.2,57.2,29.90,NNW,327,0.0,0.0,78,0.00,,,0.00,Wunderground v.1.15,2013-07-30 05:22:00,
2013-07-30 01:27:00,64.1,57.1,29.89,NNW,327,0.0,0.0,78,0.00,,,0.00,Wunderground v.1.15,2013-07-30 05:27:00,
2013-07-30 01:33:00,64.1,57.5,29.89,NNW,333,0.0,0.0,79,0.00,,,0.00,Wunderground v.1.15,2013-07-30 05:33:00,
2013-07-30 01:39:00,64.1,57.8,29.89,NNW,333,0.0,0.0,80,0.00,,,0.00,Wunderground v.1.15,2013-07-30 05:39:00,
2013-07-30 01:44:00,64.1,57.8,29.89,NNW,333,0.0,0.0,80,0.00,,,0.00,Wunderground v.1.15,2013-07-30 05:44:00,
2013-07-30 01:50:00,64.1,58.1,29.89,NNW,333,0.0,0.0,81,0.00,,,0.00,Wunderground v.1.15,2013-07-30 05:50:00,
2013-07-30 01:56:00,64.0,58.1,29.89,NNW,333,0.0,0.0,81,0.00,,,0.00,Wunderground v.1.15,2013-07-30 05:56:00,
2013-07-30 02:01:00,63.9,58.0,29.89,NNW,333,0.0,0.0,81,0.00,,,0.00,Wunderground v.1.15,2013-07-30 06:01:00,
2013-07-30 02:07:00,63.8,58.2,29.89,NNW,333,0.0,0.0,82,0.00,,,0.00,Wunderground v.1.15,2013-07-30 06:07:00,
2013-07-30 02:12:00,63.8,58.2,29.88,NNW,333,0.0,0.0,82,0.00,,,0.00,Wunderground v.1.15,2013-07-30 06:12:00,
2013-07-30 02:17:00,63.8,58.2,29.88,NNW,333,0.0,0.0,82,0.00,,,0.00,Wunderground v.1.15,2013-07-30 06:17:00,
2013-07-30 02:23:00,63.7,58.4,29.89,NNW,333,0.0,0.0,83,0.00,,,0.00,Wunderground v.1.15,2013-07-30 06:23:00,
2013-07-30 02:29:00,63.6,58.3,29.89,NNW,333,0.0,0.0,83,0.00,,,0.00,Wunderground v.1.15,2013-07-30 06:29:00,
2013-07-30 02:35:00,63.6,58.7,29.89,NNW,333,0.0,0.0,84,0.00,,,0.00,Wunderground v.1.15,2013-07-30 06:35:00,
2013-07-30 02:40:00,63.5,58.6,29.89,NNW,333,0.0,0.0,84,0.00,,,0.00,Wunderground v.1.15,2013-07-30 06:40:00,
2013-07-30 02:48:00,63.4,58.5,29.89,NNW,333,0.0,0.0,84,0.00,,,0.00,Wunderground v.1.15,2013-07-30 06:48:00,
2013-07-30 02:54:00,63.3,58.0,29.89,NNW,333,0.0,0.0,83,0.00,,,0.00,Wunderground v.1.15,2013-07-30 06:54:00,
2013-07-30 03:00:00,63.2,57.9,29.88,NNW,333,0.0,0.0,83,0.00,,,0.00,Wunderground v.1.15,2013-07-30 07:00:00,
2013-07-30 03:06:00,63.2,58.3,29.88,NNW,333,0.0,0.0,84,0.00,,,0.00,Wunderground v.1.15,2013-07-30 07:06:00,
2013-07-30 03:11:00,63.2,58.3,29.89,NNW,333,0.0,0.0,84,0.00,,,0.00,Wunderground v.1.15,2013-07-30 07:11:00,
2013-07-30 03:16:00,63.2,57.9,29.89,NNW,333,0.0,0.0,83,0.00,,,0.00,Wunderground v.1.15,2013-07-30 07:16:00,
2013-07-30 03:22:00,63.1,57.9,29.88,NNW,333,0.0,0.0,83,0.00,,,0.00,Wunderground v.1.15,2013-07-30 07:22:00,
2013-07-30 03:28:00,63.1,58.2,29.88,NNW,333,0.0,0.0,84,0.00,,,0.00,Wunderground v.1.15,2013-07-30 07:28:00,
2013-07-30 03:33:00,63.0,58.4,29.88,NNW,333,0.0,0.0,85,0.00,,,0.00,Wunderground v.1.15,2013-07-30 07:33:00,
2013-07-30 03:39:00,63.0,58.4,29.89,NNW,333,0.0,0.0,85,0.00,,,0.00,Wunderground v.1.15,2013-07-30 07:39:00,
2013-07-30 03:44:00,62.9,58.3,29.89,NNW,333,0.0,0.0,85,0.00,,,0.00,Wunderground v.1.15,2013-07-30 07:44:00,
2013-07-30 03:50:00,62.9,58.3,29.88,NNW,333,0.0,0.0,85,0.00,,,0.00,Wunderground v.1.15,2013-07-30 07:50:00,
2013-07-30 03:56:00,62.9,58.6,29.89,NNW,333,0.0,0.0,86,0.00,,,0.00,Wunderground v.1.15,2013-07-30 07:56:00,
2013-07-30 04:01:00,62.8,58.5,29.89,NNW,333,0.0,0.0,86,0.00,,,0.00,Wunderground v.1.15,2013-07-30 08:01:00,
2013-07-30 04:06:00,62.8,58.5,29.89,NNW,333,0.0,0.0,86,0.00,,,0.00,Wunderground v.1.15,2013-07-30 08:06:00,
2013-07-30 04:12:00,62.7,58.1,29.89,NNW,333,0.0,0.0,85,0.00,,,0.00,Wunderground v.1.15,2013-07-30 08:12:00,
2013-07-30 04:17:00,62.7,58.1,29.89,NNW,333,0.0,0.0,85,0.00,,,0.00,Wunderground v.1.15,2013-07-30 08:17:00,
2013-07-30 04:23:00,62.7,58.1,29.89,NNW,333,0.0,0.0,85,0.00,,,0.00,Wunderground v.1.15,2013-07-30 08:23:00,
2013-07-30 04:29:00,62.6,58.4,29.89,NNW,333,0.0,0.0,86,0.00,,,0.00,Wunderground v.1.15,2013-07-30 08:29:00,
2013-07-30 04:35:00,62.6,58.0,29.89,NNW,333,0.0,0.0,85,0.00,,,0.00,Wunderground v.1.15,2013-07-30 08:35:00,
2013-07-30 04:41:00,62.5,57.9,29.89,NNW,333,0.0,0.0,85,0.00,,,0.00,Wunderground v.1.15,2013-07-30 08:41:00,
2013-07-30 04:48:00,62.5,58.3,29.89,NNW,333,0.0,0.0,86,0.00,,,0.00,Wunderground v.1.15,2013-07-30 08:48:00,
2013-07-30 04:54:00,62.5,58.3,29.89,NNW,333,0.0,0.0,86,0.00,,,0.00,Wunderground v.1.15,2013-07-30 08:54:00,
2013-07-30 05:00:00,62.5,57.9,29.90,NNW,333,0.0,0.0,85,0.00,,,0.00,Wunderground v.1.15,2013-07-30 09:00:00,
2013-07-30 05:06:00,62.5,58.3,29.90,NNW,333,0.0,0.0,86,0.00,,,0.00,Wunderground v.1.15,2013-07-30 09:06:00,
2013-07-30 05:12:00,62.4,58.2,29.90,NNW,333,0.0,0.0,86,0.00,,,0.00,Wunderground v.1.15,2013-07-30 09:12:00,
2013-07-30 05:17:00,62.4,57.8,29.90,NNW,333,0.0,0.0,85,0.00,,,0.00,Wunderground v.1.15,2013-07-30 09:17:00,
2013-07-30 05:22:00,62.3,57.7,29.90,NNW,333,0.0,0.0,85,0.00,,,0.00,Wunderground v.1.15,2013-07-30 09:22:00,
2013-07-30 05:28:00,62.3,58.1,29.90,NNW,333,0.0,0.0,86,0.00,,,0.00,Wunderground v.1.15,2013-07-30 09:28:00,
2013-07-30 05:33:00,62.2,58.0,29.90,NNW,333,0.0,0.0,86,0.00,,,0.00,Wunderground v.1.15,2013-07-30 09:33:00,
2013-07-30 05:38:00,62.2,57.6,29.90,NNW,333,0.0,0.0,85,0.00,,,0.00,Wunderground v.1.15,2013-07-30 09:38:00,
2013-07-30 05:44:00,62.1,57.5,29.91,NNW,333,0.0,0.0,85,0.00,,,0.00,Wunderground v.1.15,2013-07-30 09:44:00,
2013-07-30 05:50:00,62.1,57.5,29.91,NNW,333,0.0,0.0,85,0.00,,,0.00,Wunderground v.1.15,2013-07-30 09:50:00,
2013-07-30 05:56:00,62.0,57.4,29.91,NNW,336,0.0,0.0,85,0.00,,,0.00,Wunderground v.1.15,2013-07-30 09:56:00,
2013-07-30 06:01:00,62.0,57.8,29.91,NNW,336,0.0,0.0,86,0.00,,,0.00,Wunderground v.1.15,2013-07-30 10:01:00,
2013-07-30 06:06:00,62.1,58.2,29.91,NNW,336,0.0,0.0,87,0.00,,,0.00,Wunderground v.1.15,2013-07-30 10:06:00,
2013-07-30 06:12:00,62.2,58.0,29.91,NNW,336,0.0,1.0,86,0.00,,,0.00,Wunderground v.1.15,2013-07-30 10:12:00,
2013-07-30 06:18:00,62.3,58.1,29.91,NNW,336,0.0,1.0,86,0.00,,,0.00,Wunderground v.1.15,2013-07-30 10:18:00,
2013-07-30 06:24:00,62.4,57.8,29.91,NNW,336,0.0,0.0,85,0.00,,,0.00,Wunderground v.1.15,2013-07-30 10:24:00,
2013-07-30 06:30:00,62.5,57.9,29.92,NNW,336,0.0,2.0,85,0.00,,,0.00,Wunderground v.1.15,2013-07-30 10:30:00,
2013-07-30 06:35:00,62.7,57.8,29.92,NW,323,0.0,2.0,84,0.00,,,0.00,Wunderground v.1.15,2013-07-30 10:35:00,
2013-07-30 06:41:00,62.7,57.5,29.92,NW,319,0.0,0.0,83,0.00,,,0.00,Wunderground v.1.15,2013-07-30 10:41:00,
2013-07-30 06:48:00,62.7,57.8,29.92,NW,319,0.0,0.0,84,0.00,,,0.00,Wunderground v.1.15,2013-07-30 10:48:00,
2013-07-30 06:54:00,62.7,57.8,29.92,NW,319,0.0,0.0,84,0.00,,,0.00,Wunderground v.1.15,2013-07-30 10:54:00,
2013-07-30 07:00:00,62.8,57.9,29.93,NW,319,0.0,0.0,84,0.00,,,0.00,Wunderground v.1.15,2013-07-30 11:00:00,
2013-07-30 07:06:00,62.8,57.9,29.93,NW,319,0.0,0.0,84,0.00,,,0.00,Wunderground v.1.15,2013-07-30 11:06:00,
2013-07-30 07:11:00,62.8,58.2,29.93,NW,319,0.0,0.0,85,0.00,,,0.00,Wunderground v.1.15,2013-07-30 11:11:00,
2013-07-30 07:17:00,62.9,58.0,29.93,NW,319,0.0,0.0,84,0.00,,,0.00,Wunderground v.1.15,2013-07-30 11:17:00,
2013-07-30 07:23:00,63.0,58.1,29.93,NW,319,0.0,0.0,84,0.00,,,0.00,Wunderground v.1.15,2013-07-30 11:23:00,
2013-07-30 07:29:00,63.1,58.2,29.93,NW,319,0.0,0.0,84,0.00,,,0.00,Wunderground v.1.15,2013-07-30 11:29:00,
2013-07-30 07:34:00,63.1,58.5,29.93,NW,319,0.0,0.0,85,0.00,,,0.00,Wunderground v.1.15,2013-07-30 11:34:00,
2013-07-30 07:40:00,63.2,58.6,29.94,NW,319,0.0,0.0,85,0.00,,,0.00,Wunderground v.1.15,2013-07-30 11:40:00,
2013-07-30 07:48:00,63.3,59.0,29.94,NW,319,0.0,0.0,86,0.00,,,0.00,Wunderground v.1.15,2013-07-30 11:48:00,
2013-07-30 07:54:00,63.5,59.2,29.94,NW,319,0.0,0.0,86,0.00,,,0.00,Wunderground v.1.15,2013-07-30 11:54:00,
2013-07-30 08:00:00,63.6,59.3,29.94,NW,319,0.0,0.0,86,0.00,,,0.00,Wunderground v.1.15,2013-07-30 12:00:00,
2013-07-30 08:06:00,63.7,59.8,29.95,NW,319,0.0,0.0,87,0.00,,,0.00,Wunderground v.1.15,2013-07-30 12:06:00,
2013-07-30 08:12:00,63.8,59.5,29.95,NW,319,0.0,0.0,86,0.00,,,0.00,Wunderground v.1.15,2013-07-30 12:12:00,
2013-07-30 08:17:00,64.0,59.4,29.95,NW,319,0.0,0.0,85,0.00,,,0.00,Wunderground v.1.15,2013-07-30 12:17:00,
2013-07-30 08:22:00,64.1,59.8,29.94,NW,319,0.0,0.0,86,0.00,,,0.00,Wunderground v.1.15,2013-07-30 12:22:00,
2013-07-30 08:28:00,64.2,59.9,29.94,NW,319,0.0,0.0,86,0.00,,,0.00,Wunderground v.1.15,2013-07-30 12:28:00,
2013-07-30 08:34:00,64.4,60.1,29.94,NW,319,0.0,0.0,86,0.00,,,0.00,Wunderground v.1.15,2013-07-30 12:34:00,
2013-07-30 08:40:00,64.7,60.4,29.95,NW,319,0.0,0.0,86,0.00,,,0.00,Wunderground v.1.15,2013-07-30 12:40:00,
2013-07-30 08:48:00,65.1,60.1,29.95,NW,319,0.0,0.0,84,0.00,,,0.00,Wunderground v.1.15,2013-07-30 12:48:00,
2013-07-30 08:54:00,65.3,60.3,29.95,NW,319,0.0,0.0,84,0.00,,,0.00,Wunderground v.1.15,2013-07-30 12:54:00,
2013-07-30 09:00:00,65.7,61.1,29.95,NW,319,0.0,0.0,85,0.00,,,0.00,Wunderground v.1.15,2013-07-30 13:00:00,
2013-07-30 09:06:00,65.9,60.9,29.95,NW,319,0.0,0.0,84,0.00,,,0.00,Wunderground v.1.15,2013-07-30 13:06:00,
2013-07-30 09:11:00,66.1,61.5,29.95,NW,319,0.0,0.0,85,0.00,,,0.00,Wunderground v.1.15,2013-07-30 13:11:00,
2013-07-30 09:17:00,66.3,61.7,29.95,NW,319,0.0,0.0,85,0.00,,,0.00,Wunderground v.1.15,2013-07-30 13:17:00,
2013-07-30 09:23:00,66.6,61.9,29.95,NW,319,0.0,0.0,85,0.00,,,0.00,Wunderground v.1.15,2013-07-30 13:23:00,
2013-07-30 09:28:00,66.8,62.1,29.95,NW,319,0.0,0.0,85,0.00,,,0.00,Wunderground v.1.15,2013-07-30 13:28:00,
2013-07-30 09:33:00,67.0,62.3,29.95,NW,319,0.0,0.0,85,0.00,,,0.00,Wunderground v.1.15,2013-07-30 13:33:00,
2013-07-30 09:39:00,67.3,62.6,29.95,NW,319,0.0,0.0,85,0.00,,,0.00,Wunderground v.1.15,2013-07-30 13:39:00,
2013-07-30 09:44:00,67.7,62.7,29.95,NW,319,0.0,0.0,84,0.00,,,0.00,Wunderground v.1.15,2013-07-30 13:44:00,
2013-07-30 09:49:00,67.9,62.5,29.95,WNW,292,0.0,1.0,83,0.00,,,0.00,Wunderground v.1.15,2013-07-30 13:49:00,
2013-07-30 09:55:00,68.2,62.5,29.95,WNW,292,0.0,1.0,82,0.00,,,0.00,Wunderground v.1.15,2013-07-30 13:55:00,
2013-07-30 10:00:00,68.4,62.7,29.94,WNW,292,0.0,0.0,82,0.00,,,0.00,Wunderground v.1.15,2013-07-30 14:00:00,
2013-07-30 10:06:00,68.6,62.5,29.94,WNW,292,0.0,0.0,81,0.00,,,0.00,Wunderground v.1.15,2013-07-30 14:06:00,
2013-07-30 10:11:00,68.8,62.7,29.95,WNW,292,0.0,0.0,81,0.00,,,0.00,Wunderground v.1.15,2013-07-30 14:11:00,
2013-07-30 10:17:00,69.1,63.0,29.94,WNW,296,0.0,0.0,81,0.00,,,0.00,Wunderground v.1.15,2013-07-30 14:17:00,
2013-07-30 10:23:00,69.4,63.3,29.94,WNW,296,0.0,0.0,81,0.00,,,0.00,Wunderground v.1.15,2013-07-30 14:23:00,
2013-07-30 10:28:00,69.8,63.3,29.94,WNW,296,0.0,0.0,80,0.00,,,0.00,Wunderground v.1.15,2013-07-30 14:28:00,
2013-07-30 10:34:00,70.4,63.9,29.94,WNW,296,0.0,0.0,80,0.00,,,0.00,Wunderground v.1.15,2013-07-30 14:34:00,
2013-07-30 10:39:00,70.9,64.1,29.93,WNW,296,0.0,0.0,79,0.00,,,0.00,Wunderground v.1.15,2013-07-30 14:39:00,
2013-07-30 10:44:00,71.4,64.5,29.93,WNW,296,0.0,0.0,79,0.00,,,0.00,Wunderground v.1.15,2013-07-30 14:44:00,
2013-07-30 10:50:00,72.0,64.8,29.92,NW,310,0.0,0.0,78,0.00,,,0.00,Wunderground v.1.15,2013-07-30 14:50:00,
2013-07-30 10:56:00,72.6,65.0,29.92,NW,310,0.0,0.0,77,0.00,,,0.00,Wunderground v.1.15,2013-07-30 14:56:00,
2013-07-30 11:01:00,73.0,65.4,29.92,NW,310,0.0,0.0,77,0.00,,,0.00,Wunderground v.1.15,2013-07-30 15:01:00,
2013-07-30 11:07:00,73.4,65.7,29.92,NW,310,0.0,0.0,77,0.00,,,0.00,Wunderground v.1.15,2013-07-30 15:07:00,
2013-07-30 11:12:00,73.8,66.1,29.92,NW,310,0.0,0.0,77,0.00,,,0.00,Wunderground v.1.15,2013-07-30 15:12:00,
2013-07-30 11:18:00,74.0,66.3,29.92,NW,310,0.0,1.0,77,0.00,,,0.00,Wunderground v.1.15,2013-07-30 15:18:00,
2013-07-30 11:23:00,73.8,66.5,29.91,NW,310,0.0,0.0,78,0.00,,,0.00,Wunderground v.1.15,2013-07-30 15:23:00,
2013-07-30 11:28:00,73.7,66.0,29.91,NW,310,0.0,0.0,77,0.00,,,0.00,Wunderground v.1.15,2013-07-30 15:28:00,
2013-07-30 11:34:00,73.9,66.2,29.92,NW,310,0.0,0.0,77,0.00,,,0.00,Wunderground v.1.15,2013-07-30 15:34:00,
2013-07-30 11:40:00,74.2,66.1,29.91,NW,322,0.0,0.0,76,0.00,,,0.00,Wunderground v.1.15,2013-07-30 15:40:00,
2013-07-30 11:45:00,74.6,65.8,29.91,NNW,336,0.0,1.0,74,0.00,,,0.00,Wunderground v.1.15,2013-07-30 15:45:00,
2013-07-30 11:51:00,75.1,66.6,29.91,NNW,344,0.0,1.0,75,0.00,,,0.00,Wunderground v.1.15,2013-07-30 15:51:00,
2013-07-30 11:56:00,75.5,66.2,29.91,NNW,344,0.0,1.0,73,0.00,,,0.00,Wunderground v.1.15,2013-07-30 15:56:00,
2013-07-30 12:01:00,75.6,65.9,29.91,North,5,0.0,1.0,72,0.00,,,0.00,Wunderground v.1.15,2013-07-30 16:01:00,
2013-07-30 12:07:00,76.0,66.7,29.91,NW,318,0.0,3.0,73,0.00,,,0.00,Wunderground v.1.15,2013-07-30 16:07:00,
2013-07-30 12:48:00,78.2,66.3,29.90,SSE,157,0.0,0.0,67,0.00,,,0.00,Wunderground v.1.15,2013-07-30 16:48:00,
2013-07-30 12:54:00,78.5,64.9,29.90,SSE,157,0.0,0.0,63,0.00,,,0.00,Wunderground v.1.15,2013-07-30 16:54:00,
2013-07-30 13:00:00,78.9,66.1,29.90,SSE,157,0.0,0.0,65,0.00,,,0.00,Wunderground v.1.15,2013-07-30 17:00:00,
2013-07-30 13:06:00,79.0,64.9,29.90,NNW,338,0.0,1.0,62,0.00,,,0.00,Wunderground v.1.15,2013-07-30 17:06:00,
2013-07-30 13:13:00,79.1,65.0,29.90,NE,35,0.0,0.0,62,0.00,,,0.00,Wunderground v.1.15,2013-07-30 17:13:00,
2013-07-30 13:18:00,79.4,66.6,29.89,NE,36,0.0,0.0,65,0.00,,,0.00,Wunderground v.1.15,2013-07-30 17:18:00,
2013-07-30 13:23:00,79.6,66.8,29.89,NE,36,0.0,0.0,65,0.00,,,0.00,Wunderground v.1.15,2013-07-30 17:23:00,
2013-07-30 13:29:00,79.4,65.2,29.89,NE,36,0.0,1.0,62,0.00,,,0.00,Wunderground v.1.15,2013-07-30 17:29:00,
2013-07-30 13:34:00,79.7,66.0,29.89,NE,36,0.0,1.0,63,0.00,,,0.00,Wunderground v.1.15,2013-07-30 17:34:00,
2013-07-30 13:40:00,80.1,66.4,29.89,ENE,78,0.0,0.0,63,0.00,,,0.00,Wunderground v.1.15,2013-07-30 17:40:00,
2013-07-30 13:45:00,80.2,66.0,29.89,ENE,78,0.0,2.0,62,0.00,,,0.00,Wunderground v.1.15,2013-07-30 17:45:00,
2013-07-30 13:51:00,80.4,65.7,29.88,ENE,78,0.0,1.0,61,0.00,,,0.00,Wunderground v.1.15,2013-07-30 17:51:00,
2013-07-30 13:57:00,80.3,65.6,29.88,ENE,78,0.0,1.0,61,0.00,,,0.00,Wunderground v.1.15,2013-07-30 17:57:00,
2013-07-30 14:03:00,80.7,65.5,29.88,ENE,78,0.0,0.0,60,0.00,,,0.00,Wunderground v.1.15,2013-07-30 18:03:00,
2013-07-30 14:09:00,81.0,65.8,29.88,ENE,74,0.0,1.0,60,0.00,,,0.00,Wunderground v.1.15,2013-07-30 18:09:00,
2013-07-30 14:15:00,80.7,66.5,29.88,ENE,76,0.0,1.0,62,0.00,,,0.00,Wunderground v.1.15,2013-07-30 18:15:00,
2013-07-30 14:21:00,80.9,65.2,29.87,ENE,74,0.0,0.0,59,0.00,,,0.00,Wunderground v.1.15,2013-07-30 18:21:00,
2013-07-30 14:26:00,81.0,65.3,29.87,NE,34,0.0,1.0,59,0.00,,,0.00,Wunderground v.1.15,2013-07-30 18:26:00,
2013-07-30 14:32:00,81.2,66.9,29.87,NE,35,0.0,1.0,62,0.00,,,0.00,Wunderground v.1.15,2013-07-30 18:32:00,
2013-07-30 14:37:00,81.2,66.0,29.87,ESE,109,0.0,1.0,60,0.00,,,0.00,Wunderground v.1.15,2013-07-30 18:37:00,
2013-07-30 14:42:00,81.4,65.7,29.87,ESE,109,0.0,0.0,59,0.00,,,0.00,Wunderground v.1.15,2013-07-30 18:42:00,
2013-07-30 14:48:00,82.0,66.3,29.86,NE,44,0.0,0.0,59,0.00,,,0.00,Wunderground v.1.15,2013-07-30 18:48:00,
2013-07-30 14:54:00,82.3,68.4,29.86,NE,46,0.0,0.0,63,0.00,,,0.00,Wunderground v.1.15,2013-07-30 18:54:00,
2013-07-30 15:00:00,82.3,67.0,29.86,NE,46,0.0,0.0,60,0.00,,,0.00,Wunderground v.1.15,2013-07-30 19:00:00,
2013-07-30 15:06:00,82.5,66.2,29.86,East,90,0.0,1.0,58,0.00,,,0.00,Wunderground v.1.15,2013-07-30 19:06:00,
2013-07-30 15:12:00,82.3,66.5,29.86,East,90,0.0,1.0,59,0.00,,,0.00,Wunderground v.1.15,2013-07-30 19:12:00,
2013-07-30 15:18:00,81.7,65.5,29.86,East,91,0.0,1.0,58,0.00,,,0.00,Wunderground v.1.15,2013-07-30 19:18:00,
2013-07-30 15:23:00,81.5,65.3,29.85,East,91,0.0,1.0,58,0.00,,,0.00,Wunderground v.1.15,2013-07-30 19:23:00,
2013-07-30 15:29:00,81.4,68.5,29.85,East,91,0.0,1.0,65,0.00,,,0.00,Wunderground v.1.15,2013-07-30 19:29:00,
2013-07-30 15:35:00,81.4,68.1,29.85,East,91,0.0,1.0,64,0.00,,,0.00,Wunderground v.1.15,2013-07-30 19:35:00,
2013-07-30 15:41:00,81.4,68.9,29.85,East,91,0.0,1.0,66,0.00,,,0.00,Wunderground v.1.15,2013-07-30 19:41:00,
2013-07-30 15:48:00,81.2,68.3,29.85,East,91,0.0,0.0,65,0.00,,,0.00,Wunderground v.1.15,2013-07-30 19:48:00,
2013-07-30 15:53:00,81.3,68.9,29.85,East,91,0.0,0.0,66,0.00,,,0.00,Wunderground v.1.15,2013-07-30 19:53:00,
2013-07-30 15:59:00,81.3,68.9,29.84,NW,308,0.0,2.0,66,0.00,,,0.00,Wunderground v.1.15,2013-07-30 19:59:00,
2013-07-30 16:04:00,81.4,68.9,29.84,NW,308,0.0,1.0,66,0.00,,,0.00,Wunderground v.1.15,2013-07-30 20:04:00,
2013-07-30 16:10:00,81.3,70.2,29.84,NW,308,0.0,0.0,69,0.00,,,0.00,Wunderground v.1.15,2013-07-30 20:10:00,
2013-07-30 16:15:00,81.2,70.1,29.84,NW,308,0.0,0.0,69,0.00,,,0.00,Wunderground v.1.15,2013-07-30 20:15:00,
2013-07-30 16:20:00,81.2,70.1,29.83,NW,308,0.0,0.0,69,0.00,,,0.00,Wunderground v.1.15,2013-07-30 20:20:00,
2013-07-30 16:26:00,81.3,69.7,29.83,NNE,19,0.0,1.0,68,0.00,,,0.00,Wunderground v.1.15,2013-07-30 20:26:00,
2013-07-30 16:32:00,81.3,69.3,29.83,NNW,338,0.0,0.0,67,0.00,,,0.00,Wunderground v.1.15,2013-07-30 20:32:00,
2013-07-30 16:38:00,81.4,70.2,29.83,NNW,338,0.0,0.0,69,0.00,,,0.00,Wunderground v.1.15,2013-07-30 20:38:00,
2013-07-30 16:43:00,81.2,68.8,29.83,NE,50,0.0,1.0,66,0.00,,,0.00,Wunderground v.1.15,2013-07-30 20:43:00,
2013-07-30 16:48:00,81.0,70.7,29.83,NE,50,0.0,0.0,71,0.00,,,0.00,Wunderground v.1.15,2013-07-30 20:48:00,
2013-07-30 16:54:00,80.7,70.8,29.83,ENE,63,0.0,1.0,72,0.00,,,0.00,Wunderground v.1.15,2013-07-30 20:54:00,
2013-07-30 17:00:00,80.6,69.9,29.83,ENE,63,0.0,0.0,70,0.00,,,0.00,Wunderground v.1.15,2013-07-30 21:00:00,
2013-07-30 17:06:00,80.5,70.2,29.83,ENE,63,0.0,0.0,71,0.00,,,0.00,Wunderground v.1.15,2013-07-30 21:06:00,
2013-07-30 17:12:00,80.5,70.6,29.82,ENE,63,0.0,1.0,72,0.00,,,0.00,Wunderground v.1.15,2013-07-30 21:12:00,
2013-07-30 17:17:00,80.3,70.0,29.83,ENE,63,0.0,1.0,71,0.00,,,0.00,Wunderground v.1.15,2013-07-30 21:17:00,
2013-07-30 17:23:00,80.0,70.2,29.83,ENE,64,0.0,0.0,72,0.00,,,0.00,Wunderground v.1.15,2013-07-30 21:23:00,
2013-07-30 17:28:00,80.0,70.6,29.83,ENE,64,0.0,0.0,73,0.00,,,0.00,Wunderground v.1.15,2013-07-30 21:28:00,
2013-07-30 17:34:00,79.7,70.7,29.83,ENE,64,0.0,0.0,74,0.00,,,0.00,Wunderground v.1.15,2013-07-30 21:34:00,
2013-07-30 17:40:00,79.5,70.9,29.83,ENE,64,0.0,0.0,75,0.00,,,0.00,Wunderground v.1.15,2013-07-30 21:40:00,
2013-07-30 17:45:00,79.3,71.1,29.83,ENE,64,0.0,0.0,76,0.00,,,0.00,Wunderground v.1.15,2013-07-30 21:45:00,
2013-07-30 17:51:00,79.2,71.0,29.82,ENE,64,0.0,0.0,76,0.00,,,0.00,Wunderground v.1.15,2013-07-30 21:51:00,
2013-07-30 17:56:00,79.2,71.0,29.82,ENE,64,0.0,1.0,76,0.00,,,0.00,Wunderground v.1.15,2013-07-30 21:56:00,
2013-07-30 18:01:00,79.2,70.6,29.82,ENE,64,0.0,0.0,75,0.00,,,0.00,Wunderground v.1.15,2013-07-30 22:01:00,
2013-07-30 18:07:00,78.9,70.3,29.82,ENE,64,0.0,0.0,75,0.00,,,0.00,Wunderground v.1.15,2013-07-30 22:07:00,
2013-07-30 18:12:00,78.8,70.6,29.82,ENE,64,0.0,0.0,76,0.00,,,0.00,Wunderground v.1.15,2013-07-30 22:12:00,
2013-07-30 18:18:00,78.6,71.2,29.82,ENE,64,0.0,1.0,78,0.00,,,0.00,Wunderground v.1.15,2013-07-30 22:18:00,
2013-07-30 18:23:00,78.4,71.3,29.82,ENE,64,0.0,0.0,79,0.00,,,0.00,Wunderground v.1.15,2013-07-30 22:23:00,
2013-07-30 18:28:00,78.2,71.5,29.82,ENE,64,0.0,0.0,80,0.00,,,0.00,Wunderground v.1.15,2013-07-30 22:28:00,
2013-07-30 18:34:00,78.1,71.4,29.82,ENE,64,0.0,0.0,80,0.00,,,0.00,Wunderground v.1.15,2013-07-30 22:34:00,
2013-07-30 18:39:00,77.9,71.6,29.82,ENE,64,0.0,0.0,81,0.00,,,0.00,Wunderground v.1.15,2013-07-30 22:39:00,
2013-07-30 18:45:00,77.7,71.4,29.82,ENE,64,0.0,0.0,81,0.00,,,0.00,Wunderground v.1.15,2013-07-30 22:45:00,
2013-07-30 18:51:00,77.5,71.6,29.82,ENE,64,0.0,0.0,82,0.00,,,0.00,Wunderground v.1.15,2013-07-30 22:51:00,
2013-07-30 18:57:00,77.3,71.4,29.82,ENE,64,0.0,0.0,82,0.00,,,0.00,Wunderground v.1.15,2013-07-30 22:57:00,
2013-07-30 19:02:00,77.2,71.3,29.82,ENE,64,0.0,0.0,82,0.00,,,0.00,Wunderground v.1.15,2013-07-30 23:02:00,
2013-07-30 19:07:00,77.1,71.5,29.82,ENE,64,0.0,0.0,83,0.00,,,0.00,Wunderground v.1.15,2013-07-30 23:07:00,
2013-07-30 19:13:00,76.9,71.7,29.82,ENE,64,0.0,0.0,84,0.00,,,0.00,Wunderground v.1.15,2013-07-30 23:13:00,
2013-07-30 19:19:00,76.6,71.4,29.82,ENE,64,0.0,0.0,84,0.00,,,0.00,Wunderground v.1.15,2013-07-30 23:19:00,
2013-07-30 19:25:00,76.4,71.2,29.82,ENE,64,0.0,0.0,84,0.00,,,0.00,Wunderground v.1.15,2013-07-30 23:25:00,
2013-07-30 19:30:00,76.3,71.1,29.82,ENE,64,0.0,0.0,84,0.00,,,0.00,Wunderground v.1.15,2013-07-30 23:30:00,
2013-07-30 19:35:00,76.1,70.2,29.82,ENE,64,0.0,0.0,82,0.00,,,0.00,Wunderground v.1.15,2013-07-30 23:35:00,
2013-07-30 19:40:00,76.0,70.1,29.82,ENE,64,0.0,0.0,82,0.00,,,0.00,Wunderground v.1.15,2013-07-30 23:40:00,
2013-07-30 19:48:00,75.9,70.4,29.82,ENE,64,0.0,0.0,83,0.00,,,0.00,Wunderground v.1.15,2013-07-30 23:48:00,
2013-07-30 19:53:00,75.8,70.6,29.82,ENE,64,0.0,0.0,84,0.00,,,0.00,Wunderground v.1.15,2013-07-30 23:53:00,
2013-07-30 19:59:00,75.7,70.5,29.82,ENE,64,0.0,0.0,84,0.00,,,0.00,Wunderground v.1.15,2013-07-30 23:59:00,
2013-07-30 20:05:00,75.5,70.7,29.82,ENE,64,0.0,0.0,85,0.00,,,0.00,Wunderground v.1.15,2013-07-31 00:05:00,
2013-07-30 20:11:00,75.1,69.9,29.82,ENE,64,0.0,0.0,84,0.00,,,0.00,Wunderground v.1.15,2013-07-31 00:11:00,
2013-07-30 20:16:00,75.0,70.2,29.82,ENE,64,0.0,0.0,85,0.00,,,0.00,Wunderground v.1.15,2013-07-31 00:16:00,
2013-07-30 20:22:00,74.9,70.4,29.83,ENE,64,0.0,0.0,86,0.00,,,0.00,Wunderground v.1.15,2013-07-31 00:22:00,
2013-07-30 20:28:00,74.7,70.2,29.82,ENE,64,0.0,0.0,86,0.00,,,0.00,Wunderground v.1.15,2013-07-31 00:28:00,
2013-07-30 20:33:00,74.5,70.4,29.83,ENE,64,0.0,0.0,87,0.00,,,0.00,Wunderground v.1.15,2013-07-31 00:33:00,
2013-07-30 20:39:00,74.4,70.3,29.83,ENE,64,0.0,0.0,87,0.00,,,0.00,Wunderground v.1.15,2013-07-31 00:39:00,
2013-07-30 20:44:00,74.3,70.2,29.82,ENE,64,0.0,0.0,87,0.00,,,0.00,Wunderground v.1.15,2013-07-31 00:44:00,
2013-07-30 20:49:00,74.1,69.6,29.83,ENE,64,0.0,0.0,86,0.00,,,0.00,Wunderground v.1.15,2013-07-31 00:49:00,
2013-07-30 20:55:00,73.9,69.8,29.83,ENE,64,0.0,0.0,87,0.00,,,0.00,Wunderground v.1.15,2013-07-31 00:55:00,
2013-07-30 21:00:00,73.8,69.7,29.83,ENE,64,0.0,0.0,87,0.00,,,0.00,Wunderground v.1.15,2013-07-31 01:00:00,
2013-07-30 21:06:00,73.7,69.6,29.83,ENE,64,0.0,0.0,87,0.00,,,0.00,Wunderground v.1.15,2013-07-31 01:06:00,
2013-07-30 21:12:00,73.5,69.4,29.83,ENE,64,0.0,0.0,87,0.00,,,0.00,Wunderground v.1.15,2013-07-31 01:12:00,
2013-07-30 21:18:00,73.4,69.3,29.83,ENE,64,0.0,0.0,87,0.00,,,0.00,Wunderground v.1.15,2013-07-31 01:18:00,
2013-07-30 21:23:00,73.2,69.1,29.83,ENE,64,0.0,0.0,87,0.00,,,0.00,Wunderground v.1.15,2013-07-31 01:23:00,
2013-07-30 21:29:00,73.0,68.9,29.84,ENE,64,0.0,0.0,87,0.00,,,0.00,Wunderground v.1.15,2013-07-31 01:29:00,
2013-07-30 21:34:00,72.9,68.8,29.84,ENE,64,0.0,0.0,87,0.00,,,0.00,Wunderground v.1.15,2013-07-31 01:34:00,
2013-07-30 21:39:00,72.7,68.9,29.84,ENE,64,0.0,0.0,88,0.00,,,0.00,Wunderground v.1.15,2013-07-31 01:39:00,
2013-07-30 21:45:00,72.5,68.7,29.84,ENE,64,0.0,0.0,88,0.00,,,0.00,Wunderground v.1.15,2013-07-31 01:45:00,
2013-07-30 21:51:00,72.4,68.6,29.84,ENE,64,0.0,0.0,88,0.00,,,0.00,Wunderground v.1.15,2013-07-31 01:51:00,
2013-07-30 22:05:00,72.2,68.4,29.84,ENE,64,0.0,0.0,88,0.00,,,0.00,Wunderground v.1.15,2013-07-31 02:05:00,
2013-07-30 22:11:00,72.1,68.3,29.85,ENE,64,0.0,0.0,88,0.00,,,0.00,Wunderground v.1.15,2013-07-31 02:11:00,
2013-07-30 23:48:00,71.3,68.2,29.84,ENE,64,0.0,0.0,90,0.00,,,0.00,Wunderground v.1.15,2013-07-31 03:48:00,